Location: Overspoor
(51.4747°N, 5.6641°E)
Time: 03:10:19
(UTC+02:00)

DUCHIFAT 1 - Pass Details

Date: 08 July 2022
Orbit: 580 x 596 km, 98.0° (Epoch: 09 August)

Event Time Altitude Azimuth Distance (km) Brightness Sun altitude
Rises 03:40:02 0° 21° (NNE) 2,851 ? -11.7°
Reaches altitude 10° 03:42:24 10° 32° (NNE) 1,945 ? -11.5°
Maximum altitude 03:46:13 32° 96° (E) 1,028 ? -11.2°
Drops below altitude 10° 03:50:00 10° 161° (SSE) 1,933 ? -10.9°
Enters shadow 03:50:50 - 165° (SSE) 2,244 ? -10.8°
